TimePDT,TemperatureF,Dew PointF,Humidity,Sea Level PressureIn,VisibilityMPH,Wind Direction,Wind SpeedMPH,Gust SpeedMPH,PrecipitationIn,Events,Conditions,WindDirDegrees,DateUTC
12:15 AM,46.4,41.0,81,29.97,10.0,NW,6.9,-,N/A,,Clear,320,2012-10-11 07:15:00
12:35 AM,46.4,41.0,81,29.97,10.0,NW,10.4,-,N/A,,Scattered Clouds,310,2012-10-11 07:35:00
12:55 AM,46.4,41.0,81,29.97,10.0,NNW,11.5,-,N/A,,Scattered Clouds,330,2012-10-11 07:55:00
1:15 AM,46.4,41.0,81,29.96,10.0,NNW,10.4,-,N/A,,Mostly Cloudy,330,2012-10-11 08:15:00
1:55 AM,48.2,41.0,76,29.96,10.0,NNW,8.1,-,N/A,,Overcast,330,2012-10-11 08:55:00
2:15 AM,48.2,41.0,76,29.95,10.0,NW,6.9,-,N/A,,Overcast,310,2012-10-11 09:15:00
2:35 AM,46.4,41.0,81,29.94,10.0,NW,6.9,-,N/A,,Overcast,310,2012-10-11 09:35:00
2:55 AM,46.4,41.0,81,29.94,10.0,NW,4.6,-,N/A,,Mostly Cloudy,310,2012-10-11 09:55:00
3:35 AM,44.6,39.2,81,29.93,10.0,West,4.6,-,N/A,,Mostly Cloudy,260,2012-10-11 10:35:00
3:55 AM,42.8,39.2,87,29.93,10.0,Calm,Calm,-,N/A,,Mostly Cloudy,0,2012-10-11 10:55:00
4:15 AM,42.8,39.2,87,29.93,10.0,Calm,Calm,-,N/A,,Clear,0,2012-10-11 11:15:00
4:35 AM,41.0,39.2,93,29.92,10.0,Calm,Calm,-,N/A,,Partly Cloudy,0,2012-10-11 11:35:00
4:55 AM,39.2,37.4,93,29.92,10.0,Calm,Calm,-,N/A,,Partly Cloudy,0,2012-10-11 11:55:00
5:15 AM,37.4,35.6,93,29.93,10.0,Calm,Calm,-,N/A,,Mostly Cloudy,0,2012-10-11 12:15:00
5:55 AM,41.0,37.4,87,29.93,10.0,SW,3.5,-,N/A,,Mostly Cloudy,230,2012-10-11 12:55:00
6:15 AM,39.2,35.6,87,29.93,10.0,East,5.8,-,N/A,,Overcast,80,2012-10-11 13:15:00
6:35 AM,39.2,37.4,93,29.93,10.0,Calm,Calm,-,N/A,,Mostly Cloudy,0,2012-10-11 13:35:00
6:55 AM,39.2,37.4,93,29.93,8.0,Calm,Calm,-,N/A,,Partly Cloudy,0,2012-10-11 13:55:00
7:15 AM,37.4,35.6,93,29.93,5.0,SE,4.6,-,N/A,,Mostly Cloudy,140,2012-10-11 14:15:00
7:35 AM,41.0,37.4,87,29.94,8.0,Calm,Calm,-,N/A,,Overcast,0,2012-10-11 14:35:00
7:55 AM,41.0,39.2,93,29.94,8.0,ESE,3.5,-,N/A,,Mostly Cloudy,120,2012-10-11 14:55:00
8:15 AM,44.6,39.2,81,29.94,9.0,Calm,Calm,-,N/A,,Partly Cloudy,0,2012-10-11 15:15:00
8:35 AM,46.4,39.2,76,29.95,8.0,Calm,Calm,-,N/A,,Mostly Cloudy,0,2012-10-11 15:35:00
9:15 AM,50.0,41.0,71,29.95,9.0,NW,3.5,-,N/A,,Partly Cloudy,320,2012-10-11 16:15:00
9:35 AM,53.6,39.2,58,29.95,9.0,NNW,3.5,-,N/A,,Clear,330,2012-10-11 16:35:00
9:55 AM,53.6,39.2,58,29.95,9.0,WNW,4.6,-,N/A,,Clear,290,2012-10-11 16:55:00
10:15 AM,55.4,39.2,54,29.95,9.0,NNW,4.6,-,N/A,,Partly Cloudy,330,2012-10-11 17:15:00
10:55 AM,57.2,37.4,48,29.94,8.0,WSW,4.6,-,N/A,,Partly Cloudy,240,2012-10-11 17:55:00
11:15 AM,57.2,39.2,51,29.94,9.0,WNW,10.4,-,N/A,,Clear,290,2012-10-11 18:15:00
11:35 AM,59.0,41.0,51,29.94,10.0,NW,15.0,23.0,N/A,,Partly Cloudy,310,2012-10-11 18:35:00
11:55 AM,57.2,41.0,55,29.94,8.0,WNW,10.4,16.1,N/A,,Scattered Clouds,300,2012-10-11 18:55:00
12:15 PM,55.4,41.0,58,29.94,10.0,WNW,15.0,19.6,N/A,,Clear,300,2012-10-11 19:15:00
1:15 PM,53.6,41.0,62,29.94,8.0,West,13.8,-,N/A,,Overcast,270,2012-10-11 20:15:00
1:55 PM,53.6,41.0,62,29.93,9.0,NW,13.8,-,N/A,Thunderstorm,Mostly Cloudy,310,2012-10-11 20:55:00
2:15 PM,53.6,41.0,62,29.92,9.0,WNW,13.8,-,N/A,,Partly Cloudy,300,2012-10-11 21:15:00
2:35 PM,53.6,41.0,62,29.93,9.0,WNW,12.7,-,N/A,Thunderstorm,Thunderstorm,300,2012-10-11 21:35:00
2:55 PM,53.6,41.0,62,29.93,9.0,WNW,12.7,-,N/A,,Scattered Clouds,290,2012-10-11 21:55:00
3:15 PM,53.6,41.0,62,29.93,9.0,West,12.7,-,N/A,,Mostly Cloudy,260,2012-10-11 22:15:00
3:55 PM,50.0,42.8,76,29.94,9.0,West,17.3,-,N/A,,Overcast,260,2012-10-11 22:55:00
4:15 PM,48.2,42.8,82,29.93,10.0,West,17.3,-,N/A,,Overcast,260,2012-10-11 23:15:00
4:35 PM,48.2,41.0,76,29.95,10.0,West,16.1,-,N/A,,Overcast,270,2012-10-11 23:35:00
4:55 PM,46.4,41.0,81,29.94,10.0,West,15.0,-,N/A,,Overcast,260,2012-10-11 23:55:00
5:15 PM,46.4,41.0,81,29.94,10.0,West,13.8,-,N/A,,Overcast,280,2012-10-12 00:15:00
5:35 PM,46.4,41.0,81,29.94,10.0,West,11.5,-,N/A,,Overcast,270,2012-10-12 00:35:00
5:55 PM,46.4,41.0,81,29.94,10.0,West,10.4,-,N/A,,Overcast,260,2012-10-12 00:55:00
6:15 PM,46.4,41.0,81,29.94,10.0,WSW,10.4,-,N/A,,Overcast,250,2012-10-12 01:15:00
6:35 PM,48.2,41.0,76,29.94,10.0,WNW,9.2,-,N/A,,Overcast,290,2012-10-12 01:35:00
6:55 PM,48.2,42.8,82,29.95,10.0,NW,10.4,-,N/A,,Overcast,310,2012-10-12 01:55:00
7:15 PM,48.2,42.8,82,29.96,10.0,WNW,10.4,-,N/A,,Overcast,290,2012-10-12 02:15:00
7:35 PM,46.4,42.8,87,29.96,10.0,WNW,10.4,-,N/A,,Overcast,300,2012-10-12 02:35:00
7:55 PM,46.4,42.8,87,29.96,10.0,WNW,9.2,-,N/A,,Overcast,300,2012-10-12 02:55:00
8:15 PM,46.4,42.8,87,29.97,10.0,WNW,9.2,-,N/A,,Overcast,300,2012-10-12 03:15:00
8:55 PM,46.4,41.0,81,29.97,10.0,NW,9.2,-,N/A,,Overcast,310,2012-10-12 03:55:00
10:15 PM,44.6,41.0,87,29.98,10.0,NW,3.5,-,N/A,,Mostly Cloudy,320,2012-10-12 05:15:00
10:35 PM,44.6,41.0,87,29.98,10.0,NNW,5.8,-,N/A,,Scattered Clouds,330,2012-10-12 05:35:00
11:15 PM,44.6,41.0,87,29.98,10.0,WNW,4.6,-,N/A,,Overcast,300,2012-10-12 06:15:00
11:35 PM,44.6,41.0,87,29.99,10.0,WNW,6.9,-,N/A,Thunderstorm,Mostly Cloudy,300,2012-10-12 06:35:00
11:55 PM,44.6,41.0,87,29.99,10.0,WNW,8.1,-,N/A,,Overcast,300,2012-10-12 06:55:00